Flag for U.S.A. Weather past 2 weeks in Charlottesville, Virginia, U.S.A.

Now
67 °F

Partly sunny.


Feels Like: 67 °F
Forecast: 48 / 67 °F
Wind: 5 mph from Northeast

Location: Charlottesville-Albemarle Airport

Current Time: Oct 21, 2014 at 5:00:21 PM

Latest Report: Oct 21, 2014 at 3:53 PM


Visibility: 10 mi

Pressure: 29.78 "Hg

Humidity: 47%

Dew point: 46 °F

Location of CharlottesvilleLocation

Historic Weather in Charlottesville — Graph

°F

Charlottesville temperature yesterday

Maximum temperature yesterday: 66 °F (at 2:53 PM)
Minimum temperature yesterday: 37 °F (at 5:53 AM)
Average temperature yesterday: 52 °F

Past Weeks' High & Low Weather Summary

 TemperatureHumidityPressure
High77 °F (Oct 8, 2:53 PM)100% (Oct 16, 12:00 AM)30.28 "Hg (Oct 16, 12:00 AM)
Low37 °F (Oct 20, 5:53 AM)26% (Oct 8, 4:53 PM)29.65 "Hg (Oct 18, 4:53 AM)
Average60 °F77%29.97 "Hg
* Reported Oct 6 3:53 PM — Oct 21 3:53 PM, Charlottesville, Weather by CustomWeather, © 2014

Note: Actual official high and low records may vary slightly from our data, if they occured in-between our weather recording intervals... More about our weather records

Advertising

Charlottesville weather history for previous 24 hours

 ConditionsComfort  
Time TempWeatherWind HumidityBarometerVisibility
3:53 PM
Oct 21
67 °FPartly sunny.5 mph47%29.78 "Hg10 mi
2:53 PM70 °FScattered clouds.7 mph38%29.78 "Hg10 mi
1:53 PM69 °FPartly sunny.No wind44%29.80 "Hg10 mi
12:53 PM68 °FPassing clouds.5 mph47%29.83 "Hg10 mi
11:53 AM65 °FSunny.5 mph54%29.85 "Hg10 mi
10:53 AM64 °FSunny.No wind56%29.86 "Hg10 mi
9:53 AM61 °FSunny.No wind62%29.87 "Hg10 mi
8:53 AM58 °FScattered clouds.No wind72%29.87 "Hg10 mi
7:53 AM52 °FPassing clouds.No wind83%29.87 "Hg10 mi
6:53 AM51 °FPassing clouds.No wind86%29.87 "Hg10 mi
5:53 AM52 °FClear.No wind83%29.86 "Hg10 mi
4:53 AM53 °FPassing clouds.No wind83%29.86 "Hg10 mi
3:53 AM53 °FPassing clouds.5 mph86%29.87 "Hg10 mi
2:53 AM53 °FClear.No wind86%29.88 "Hg10 mi
1:53 AM53 °FPassing clouds.No wind86%29.89 "Hg10 mi
12:53 AM53 °FPassing clouds.6 mph83%29.91 "Hg10 mi
11:53 PM
Oct 20
56 °FOvercast.5 mph77%29.91 "Hg10 mi
10:53 PM54 °FPassing clouds.No wind90%29.93 "Hg10 mi
9:53 PM57 °FLight rain. Mostly cloudy.8 mph81%29.94 "Hg10 mi
8:53 PM58 °FLight rain. Overcast.6 mph75%29.94 "Hg10 mi
7:53 PM60 °FPartly cloudy.7 mph65%29.93 "Hg10 mi
6:53 PM61 °FSunny.9 mph60%29.93 "Hg10 mi
5:53 PM64 °FSunny.10 mph54%29.93 "Hg10 mi
Weather by CustomWeather, © 2014

See weather overviewHow to use our weather pages